Regional Weather Roundup
Issued by NWS

Home | Current Version | Previous Version | Text Only | Print | Product List | Glossary Off
Versions: 1 2 3 4 5 6 7 8 9 10 11 12 13 14 15 16 17 18 19 20 21 22 23 24 25 26 27 28 29 30 31 32 33 34 35 36 37 38 39 40 41 42 43 44 45 46 47 48 49 50

000
ASUS43 KOAX 210702
RWRNE

WEATHER ROUNDUP FOR NEBRASKA
NATIONAL WEATHER SERVICE OMAHA NE
200 AM CDT TUE OCT 21 2014

NOTES: SATELLITE DATA IS BEING USED TO AUGMENT CLOUD COVER ABOVE
       12000 FEET.
       "FAIR" INDICATES FEW OR NO CLOUDS BELOW 12,000 FEET WITH NO
       SIGNIFICANT WEATHER AND/OR OBSTRUCTIONS TO VISIBILITY.

  * THESE STATIONS DO NOT REPORT WEATHER SUCH AS RAIN...SNOW OR FOG.

NEZ001>004-019>022-054>056-210800-
NEBRASKA PANHANDLE

CITY           SKY/WX    TMP DP  RH WIND       PRES   REMARKS
SCOTTSBLUFF    CLEAR     60  41  49 N5        29.99S
ALLIANCE       CLEAR     47  40  76 S10       30.00S
CHADRON        CLEAR     63  40  42 SW13      29.92R
KIMBALL        CLEAR     50  40  69 S12       30.02F
SIDNEY         CLEAR     52  41  66 S10       30.05F
$$

NEZ057>060-069>072-079>082-210800-
SOUTHWEST NEBRASKA

CITY           SKY/WX    TMP DP  RH WIND       PRES   REMARKS
NORTH PLATTE   CLEAR     47  38  71 SE3       30.05S
IMPERIAL       CLEAR     51  37  58 S7        30.07S
LEXINGTON      CLEAR     50  41  71 CALM      30.06S
MCCOOK         CLEAR     50  40  68 SW10      30.07R
OGALLALA       CLEAR     45  38  75 CALM      30.05S
$$

NEZ005>010-023>029-035>040-094-210800-
NORTH CENTRAL NEBRASKA

CITY           SKY/WX    TMP DP  RH WIND       PRES   REMARKS
VALENTINE      CLEAR     55  39  54 S12       29.97S
AINSWORTH      CLEAR     55  40  57 S12       30.00R
BROKEN BOW     CLEAR     44  38  79 CALM      30.05R
O`NEILL        CLEAR     50  42  73 S7        30.04R
ORD            CLEAR     41  36  82 SE3       30.05R
THEDFORD       CLEAR     55  41  58 S7        30.03S
$$

NEZ041-046>049-061>064-073>077-083>087-210800-
SOUTH CENTRAL NEBRASKA

CITY           SKY/WX    TMP DP  RH WIND       PRES   REMARKS
GRAND ISLAND   CLEAR     49  39  68 S7        30.07R
AURORA         CLEAR     48  37  64 S5        30.07S HAZE
HASTINGS       CLEAR     53  39  59 S7        30.07R
HEBRON         CLEAR     42  38  88 CALM      30.08S
HOLDREGE       CLEAR     50  41  69 CALM      30.07R
KEARNEY *      CLEAR     48  39  71 S3        30.07S
YORK           CLEAR     48  37  66 SW6       30.08R
$$

NEZ011>018-030>034-042>045-210800-
NORTHEAST NEBRASKA

CITY           SKY/WX    TMP DP  RH WIND       PRES   REMARKS
NORFOLK        CLEAR     42  35  76 CALM      30.06R
ALBION         CLEAR     40  35  80 CALM      30.06S
BLAIR          CLEAR     53  39  57 CALM      30.07R
COLUMBUS *     CLEAR     39  34  81 CALM      30.08S
FREMONT        CLEAR     43  41  91 CALM      30.07R
TEKAMAH        CLEAR     40  37  89 W3        30.08R
WAYNE          CLEAR     37  34  89 CALM      30.08R
$$

NEZ050>053-065>068-078-088>093-210800-
SOUTHEAST NEBRASKA

CITY           SKY/WX    TMP DP  RH WIND       PRES   REMARKS
LINCOLN        CLEAR     41  36  82 CALM      30.09R
OMAHA EPPLEY   CLEAR     45  42  89 CALM      30.08R
BEATRICE       CLEAR     42  38  86 CALM      30.09R
FALLS CITY     CLEAR     43  38  82 CALM      30.08R
NEBRASKA CITY  CLEAR     51  35  54 CALM      30.08R
PLATTSMOUTH    CLEAR     53  37  55 CALM      30.07S
$$

NEZ044-045-051>053-067-210800-
OMAHA AREA

CITY           SKY/WX    TMP DP  RH WIND       PRES   REMARKS
OMAHA EPPLEY   CLEAR     45  42  89 CALM      30.08R
BLAIR          CLEAR     53  39  57 CALM      30.07R
FREMONT        CLEAR     43  41  91 CALM      30.07R
MILLARD        CLEAR     44  43  96 CALM      30.07S
OFFUTT AFB     CLEAR     40  40 100 CALM      30.07R
PLATTSMOUTH    CLEAR     53  37  55 CALM      30.07S
WAHOO          FAIR      41  36  81 CALM      30.07S
$$



USA.gov is the U.S. government's official web portal to all federal, state and local government web resources and services.